Location: Boursonne
(49.2024°N, 3.0468°E)
Time: 03:58:34
(UTC+00:00)

Cosmos 1943 Rocket - Pass Details

Date: 03 March 2021
Orbit: 811 x 844 km, 71.0° (Epoch: 17 April)

Event Time Altitude Azimuth Distance (km) Brightness Sun altitude
Rises 18:58:31 0° 332° (NNW) 3,414 5.9 -14.5°
Reaches altitude 10° 19:03:53 10° 13° (NNE) 2,476 4.6 -15.4°
Maximum altitude 19:04:40 10° 21° (NNE) 2,457 4.5 -15.5°
Drops below altitude 10° 19:05:28 10° 30° (NNE) 2,475 4.4 -15.6°
Enters shadow 19:07:10 - 46° (NE) 2,638 4.4 -15.9°
